Weather History for Obihiro, Japan

Change the Weather History Date:

Sunday, December 30, 2012

  Actual Average Record
Temperature  
Mean Temperature 20 °F -  
Max Temperature 26 °F 22 °F 39 °F (2007)
Min Temperature 15 °F 6 °F -5 °F (2004)
Degree Days  
Heating Degree Days 44    
Moisture  
Dew Point 18 °F    
Average Humidity 91    
Maximum Humidity 100    
Minimum Humidity 86    
Precipitation  
Precipitation 0.00 in - - ()
Sea Level Pressure  
Sea Level Pressure 29.72 in    
Wind  
Wind Speed 2 mph ()    
Max Wind Speed 6 mph    
Max Gust Speed -    
Visibility 2.2 miles    
Events Rain , Snow    
Averages and records for this station are not official NWS values.
T = Trace of Precipitation, MM = Missing Value Source: Averaged Metar Reports

Daily Weather History Graph

Daily Weather History Graph

Search for Another Location

Airport:

Trip Planner

Search our weather history database for the weather conditions in past years. The results will help you decide how hot, cold, wet, or windy it might be!

Date:

Astronomy

Dec. 30, 2012 Rise Set
Actual Time 6:57 AM JST 4:02 PM JST
Civil Twilight 6:25 AM JST 4:34 PM JST
Nautical Twilight 5:49 AM JST 5:09 PM JST
Astronomical Twilight 5:15 AM JST 5:44 PM JST
Moon 5:58 PM JST (12/30) 7:41 AM JST (12/30)
Length of Visible Light 10h 09m
Length of Day
9h 04m
Full, 97% of the Moon is Illuminated
Dec 30
Full
Jan 5
Last Quarter
Jan 12
New
Jan 19
First Quarter
Jan 27
Full

Hourly Weather History & Observations

Time (JST) Temp. Windchill Dew Point Humidity Pressure Visibility Wind Dir Wind Speed Gust Speed Precip Events Conditions
8:00 AM 15.8 °F - 12.2 °F 86% 30.01 in 2.8 mi Variable 1.2 mph - N/A Snow Light Snow Showers
8:22 AM 15.8 °F - 12.2 °F 86% 30.01 in - Variable 1.2 mph - N/A Snow Light Snow Showers
8:36 AM 15.8 °F - 12.2 °F 86% 29.98 in 1.4 mi Calm Calm - N/A Snow Light Snow Showers
9:00 AM 15.8 °F - 14.0 °F 93% 29.98 in 1.2 mi Variable 2.3 mph - N/A Snow Light Snow Showers
9:09 AM 15.8 °F - 14.0 °F 93% 29.98 in 0.9 mi Variable 1.2 mph - N/A Snow Light Snow Showers
9:35 AM 17.6 °F - 14.0 °F 86% 29.95 in 0.9 mi Variable 2.3 mph - N/A Snow Light Snow Showers
10:00 AM 17.6 °F - 14.0 °F 86% 29.92 in 1.0 mi Variable 2.3 mph - N/A Snow Light Snow Showers
10:30 AM 17.6 °F 12.3 °F 15.8 °F 93% 29.89 in 0.9 mi NW 3.5 mph - N/A Snow Light Snow Showers
10:35 AM 17.6 °F 12.3 °F 15.8 °F 93% 29.89 in 0.9 mi NW 3.5 mph - N/A Snow Light Snow Showers
10:48 AM 17.6 °F 10.7 °F 15.8 °F 93% 29.86 in 0.7 mi NNW 4.6 mph - N/A Snow Light Snow Showers
11:00 AM 17.6 °F 12.3 °F 15.8 °F 93% 29.86 in 0.4 mi NW 3.5 mph - N/A Snow Snow Showers
11:25 AM 19.4 °F 14.3 °F 15.8 °F 86% 29.83 in 0.4 mi NW 3.5 mph - N/A Snow Snow Showers
11:28 AM 19.4 °F 14.3 °F 15.8 °F 86% 29.83 in 0.4 mi NW 3.5 mph - N/A Snow Snow Showers
11:31 AM 19.4 °F 14.3 °F 15.8 °F 86% 29.83 in 0.4 mi NW 3.5 mph - N/A Snow Snow Showers
11:35 AM 19.4 °F 14.3 °F 15.8 °F 86% 29.80 in 0.4 mi NNW 3.5 mph - N/A Snow Snow Showers
11:37 AM 19.4 °F 12.8 °F 15.8 °F 86% 29.80 in 0.4 mi NNW 4.6 mph - N/A Snow Snow Showers
12:00 PM 19.4 °F 14.3 °F 15.8 °F 86% 29.80 in 0.3 mi NW 3.5 mph - N/A Snow Snow Showers
12:45 PM 19.4 °F 11.5 °F 15.8 °F 86% 29.74 in 0.4 mi NNW 5.8 mph - N/A Snow Snow Showers
1:00 PM 19.4 °F 11.5 °F 15.8 °F 86% 29.71 in 0.4 mi NNW 5.8 mph - N/A Snow Snow Showers
2:00 PM 19.4 °F 14.3 °F 17.6 °F 93% 29.68 in 0.6 mi NW 3.5 mph - N/A Snow Snow Showers
2:03 PM 19.4 °F 14.3 °F 17.6 °F 93% 29.68 in 0.5 mi NW 3.5 mph - N/A Snow Snow Showers
2:09 PM 19.4 °F 14.3 °F 17.6 °F 93% 29.68 in 0.5 mi NW 3.5 mph - N/A Snow Snow Showers
2:19 PM 19.4 °F 14.3 °F 17.6 °F 93% 29.68 in 0.6 mi NNW 3.5 mph - N/A Snow Snow Showers
3:00 PM 21.2 °F - 19.4 °F 93% 29.65 in 0.8 mi Variable 2.3 mph - N/A Snow Light Snow Showers
3:06 PM 21.2 °F - 19.4 °F 93% 29.65 in 0.9 mi Variable 2.3 mph - N/A Snow Light Snow Showers
3:14 PM 21.2 °F - 19.4 °F 93% 29.65 in 1.0 mi Variable 2.3 mph - N/A Snow Light Snow Showers
3:20 PM 21.2 °F - 19.4 °F 93% 29.62 in 1.5 mi Variable 2.3 mph - N/A Snow Light Snow Showers
3:29 PM 21.2 °F - 19.4 °F 93% 29.62 in - Variable 2.3 mph - N/A Snow Light Snow Showers
3:50 PM 23.0 °F - 21.2 °F 93% 29.62 in 3.1 mi Variable 2.3 mph - N/A Snow Light Snow Showers
4:00 PM 23.0 °F - 21.2 °F 93% 29.59 in 3.7 mi Variable 1.2 mph - N/A   Small Hail
5:00 PM 24.8 °F 20.5 °F 23.0 °F 93% 29.56 in 5.0 mi NW 3.5 mph - N/A   Light Small Hail Showers
5:13 PM 24.8 °F 20.5 °F 23.0 °F 93% 29.56 in 6.2 mi NW 3.5 mph - N/A Rain Light Freezing Rain
5:32 PM 26.6 °F 22.6 °F 24.8 °F 93% 29.53 in 6.2 mi NW 3.5 mph - N/A Rain Light Freezing Rain
6:00 PM 26.6 °F - 24.8 °F 93% 29.50 in 6.2 mi Variable 2.3 mph - N/A Rain Light Freezing Rain
6:22 PM 26.6 °F - 24.8 °F 93% 29.50 in 6.2 mi Variable 2.3 mph - N/A   Mostly Cloudy
6:41 PM 26.6 °F - 24.8 °F 93% 29.47 in 6.2 mi Variable 2.3 mph - N/A   Mostly Cloudy
7:00 PM 26.6 °F - 24.8 °F 93% 29.47 in 6.2 mi Variable 1.2 mph - N/A   Mostly Cloudy
8:00 PM 24.8 °F - 24.8 °F 100% 29.42 in 6.2 mi Variable 1.2 mph - N/A   Mostly Cloudy
8:32 PM 26.6 °F - 24.8 °F 93% 29.42 in 6.2 mi Variable 2.3 mph - N/A   Mostly Cloudy